Satellite: MET-3/5
Catalog number: 21655
Epoch time: 07101.92694076
Element set: 0322
Inclination: 082.5504 deg
RA of node: 049.7462 deg
Eccentricity: 0.0014266
Arg of perigee: 018.6296 deg
Mean anomaly: 341.5344 deg
Mean motion: 13.17010755 rev/day
Decay rate: 5.1e-07 rev/day^2
Epoch rev: 75268
Checksum: 292
Satellite: MET-2/21
Catalog number: 22782
Epoch time: 07101.40535853
Element set: 0796
Inclination: 082.5438 deg
RA of node: 094.8965 deg
Eccentricity: 0.0024031
Arg of perigee: 064.9723 deg
Mean anomaly: 295.3935 deg
Mean motion: 13.83616777 rev/day
Decay rate: 4.0e-07 rev/day^2
Epoch rev: 68728
Checksum: 333
Satellite: OKEAN-4
Catalog number: 23317
Epoch time: 07101.62994376
Element set: 0234
Inclination: 082.5417 deg
RA of node: 358.6313 deg
Eccentricity: 0.0023661
Arg of perigee: 109.3949 deg
Mean anomaly: 250.9825 deg
Mean motion: 14.82489143 rev/day
Decay rate: 3.36e-06 rev/day^2
Epoch rev: 67419
Checksum: 317
Satellite: NOAA-14
Catalog number: 23455
Epoch time: 07102.40040547
Element set: 594
Inclination: 098.9930 deg
RA of node: 168.2192 deg
Eccentricity: 0.0008567
Arg of perigee: 286.0603 deg
Mean anomaly: 073.9647 deg
Mean motion: 14.13709656 rev/day
Decay rate: -1.49e-06 rev/day^2
Epoch rev: 63334
Checksum: 316
Satellite: SICH-1
Catalog number: 23657
Epoch time: 07101.62493529
Element set: 0037
Inclination: 082.5276 deg
RA of node: 139.5710 deg
Eccentricity: 0.0025825
Arg of perigee: 101.5363 deg
Mean anomaly: 258.8774 deg
Mean motion: 14.81469810 rev/day
Decay rate: 2.42e-06 rev/day^2
Epoch rev: 62617
Checksum: 303
Satellite: NOAA-15
Catalog number: 25338
Epoch time: 07102.15262866
Element set: 953
Inclination: 098.5308 deg
RA of node: 100.7007 deg
Eccentricity: 0.0009984
Arg of perigee: 218.0288 deg
Mean anomaly: 142.0164 deg
Mean motion: 14.24635253 rev/day
Decay rate: 1.10e-06 rev/day^2
Epoch rev: 46328
Checksum: 285
Satellite: RESURS
Catalog number: 25394
Epoch time: 07101.95505626
Element set: 0615
Inclination: 098.4494 deg
RA of node: 159.0875 deg
Eccentricity: 0.0002305
Arg of perigee: 040.6842 deg
Mean anomaly: 319.4509 deg
Mean motion: 14.24132120 rev/day
Decay rate: -5.0e-08 rev/day^2
Epoch rev: 45492
Checksum: 281
Satellite: FENGYUN1
Catalog number: 25730
Epoch time: 07102.87752762
Element set: 57
Inclination: 098.6889 deg
RA of node: 089.2286 deg
Eccentricity: 0.0021085
Arg of perigee: 317.3603 deg
Mean anomaly: 042.5931 deg
Mean motion: 14.07457264 rev/day
Decay rate: 4.82e-06 rev/day^2
Epoch rev: 40827
Checksum: 314
Satellite: OKEAN-0
Catalog number: 25860
Epoch time: 07102.90336701
Element set: 24
Inclination: 097.7322 deg
RA of node: 108.2038 deg
Eccentricity: 0.0000614
Arg of perigee: 097.0819 deg
Mean anomaly: 263.0458 deg
Mean motion: 14.73443517 rev/day
Decay rate: 5.8e-07 rev/day^2
Epoch rev: 41588
Checksum: 280
Satellite: NOAA-16
Catalog number: 26536
Epoch time: 07102.16750323
Element set: 367
Inclination: 099.1122 deg
RA of node: 077.9780 deg
Eccentricity: 0.0010677
Arg of perigee: 003.6308 deg
Mean anomaly: 356.4931 deg
Mean motion: 14.12417453 rev/day
Decay rate: -1.15e-06 rev/day^2
Epoch rev: 33778
Checksum: 294
Satellite: NOAA-17
Catalog number: 27453
Epoch time: 07102.53458822
Element set: 377
Inclination: 098.5827 deg
RA of node: 173.3983 deg
Eccentricity: 0.0010855
Arg of perigee: 284.7150 deg
Mean anomaly: 075.2847 deg
Mean motion: 14.23868571 rev/day
Decay rate: 2.7e-07 rev/day^2
Epoch rev: 24937
Checksum: 335
Satellite: NOAA-18
Catalog number: 28654
Epoch time: 07102.16701670
Element set: 914
Inclination: 098.8227 deg
RA of node: 044.5728 deg
Eccentricity: 0.0015195
Arg of perigee: 094.7389 deg
Mean anomaly: 265.5515 deg
Mean motion: 14.11055134 rev/day
Decay rate: 3.26e-06 rev/day^2
Epoch rev: 9754
Checksum: 313
/EX
SB KEPS @ AMSAT $ORB07102.M
Orbital Elements 07102.MISC
HR AMSAT ORBITAL ELEMENTS FOR MANNED AND MISCELLANEOUS SATELLITES
FROM WA5QGD FORT WORTH,TX April 12, 2007
Send SUBSCRIBE KEPS/UNSUBSCRIBE KEPS to majordomo at amsat.org only
BID: ORB07102.M
TO ALL RADIO AMATEURS BT
Satellite: HUBBLE
Catalog number: 20580
Epoch time: 07102.54714083
Element set: 848
Inclination: 028.4676 deg
RA of node: 258.1627 deg
Eccentricity: 0.0003599
Arg of perigee: 121.0866 deg
Mean anomaly: 239.0076 deg
Mean motion: 15.00221696 rev/day
Decay rate: 4.00e-06 rev/day^2
Epoch rev: 73009
Checksum: 282
Satellite: UARS
Catalog number: 21701
Epoch time: 07102.85925169
Element set: 41
Inclination: 056.9736 deg
RA of node: 237.3088 deg
Eccentricity: 0.0099562
Arg of perigee: 067.7964 deg
Mean anomaly: 293.3619 deg
Mean motion: 15.47532224 rev/day
Decay rate: 4.959e-05 rev/day^2
Epoch rev: 85563
Checksum: 338
Satellite: PO-34
Catalog number: 25520
Epoch time: 07102.51817088
Element set: 713
Inclination: 028.4601 deg
RA of node: 188.2580 deg
Eccentricity: 0.0005499
Arg of perigee: 256.2663 deg
Mean anomaly: 103.7331 deg
Mean motion: 15.16968968 rev/day
Decay rate: 4.66e-06 rev/day^2
Epoch rev: 46754
Checksum: 319
Satellite: ISS
Catalog number: 25544
Epoch time: 07102.96938838
Element set: 10
Inclination: 051.6337 deg
RA of node: 080.9122 deg
Eccentricity: 0.0016100
Arg of perigee: 061.5766 deg
Mean anomaly: 034.5938 deg
Mean motion: 15.78721214 rev/day
Decay rate: 1.4610e-04 rev/day^2
Epoch rev: 48047
Checksum: 283
Satellite: OO-38
Catalog number: 26063
Epoch time: 07102.45630717
Element set: 884
Inclination: 100.2266 deg
RA of node: 092.9397 deg
Eccentricity: 0.0036898
Arg of perigee: 345.3659 deg
Mean anomaly: 014.6456 deg
Mean motion: 14.35801381 rev/day
Decay rate: -2.8e-07 rev/day^2
Epoch rev: 37761
Checksum: 322
Satellite: NO-45
Catalog number: 26932
Epoch time: 07101.68888672
Element set: 569
Inclination: 067.0561 deg
RA of node: 318.5478 deg
Eccentricity: 0.0006231
Arg of perigee: 290.5657 deg
Mean anomaly: 069.4770 deg
Mean motion: 14.29554154 rev/day
Decay rate: -3.6e-07 rev/day^2
Epoch rev: 28863
Checksum: 341
Satellite: UWE-1
Catalog number: 28892
Epoch time: 07101.36822932
Element set: 720
Inclination: 098.1392 deg
RA of node: 359.3153 deg
Eccentricity: 0.0016753
Arg of perigee: 323.9758 deg
Mean anomaly: 036.0295 deg
Mean motion: 14.59486068 rev/day
Decay rate: 2.9e-07 rev/day^2
Epoch rev: 7746
Checksum: 325
Satellite: CO-58
Catalog number: 28895
Epoch time: 07101.28054771
Element set: 700
Inclination: 098.1411 deg
RA of node: 359.4165 deg
Eccentricity: 0.0017442
Arg of perigee: 324.5154 deg
Mean anomaly: 035.4889 deg
Mean motion: 14.59535810 rev/day
Decay rate: 1.29e-06 rev/day^2
Epoch rev: 7733
Checksum: 314
Satellite: NCUBE2
Catalog number: 28897
Epoch time: 07102.66517506
Element set: 224
Inclination: 098.1375 deg
RA of node: 000.7356 deg
Eccentricity: 0.0016823
Arg of perigee: 322.1521 deg
Mean anomaly: 037.8489 deg
Mean motion: 14.59697661 rev/day
Decay rate: 1.86e-06 rev/day^2
Epoch rev: 6981
Checksum: 321
Satellite: NMARS
Catalog number: 29662
Epoch time: 07102.87222256
Element set: 201
Inclination: 051.6344 deg
RA of node: 070.5297 deg
Eccentricity: 0.0010573
Arg of perigee: 087.6732 deg
Mean anomaly: 272.5534 deg
Mean motion: 16.04191592 rev/day
Decay rate: 2.26542e-03 rev/day^2
Epoch rev: 1785
Checksum: 288
Satellite: FCAL
Catalog number: 29667
Epoch time: 07102.39950319
Element set: 107
Inclination: 051.6336 deg
RA of node: 078.7034 deg
Eccentricity: 0.0017050
Arg of perigee: 086.4213 deg
Mean anomaly: 273.8743 deg
Mean motion: 15.85742395 rev/day
Decay rate: 1.6867e-04 rev/day^2
Epoch rev: 1755
Checksum: 313
Satellite: FALCON
Catalog number: 30776
Epoch time: 07101.81285535
Element set: 28
Inclination: 035.4339 deg
RA of node: 255.0214 deg
Eccentricity: 0.0001810
Arg of perigee: 282.6362 deg
Mean anomaly: 077.4151 deg
Mean motion: 15.02676820 rev/day
Decay rate: 3.35e-06 rev/day^2
Epoch rev: 506
Checksum: 257
/EX
More information about the Keps
mailing list